GFSGL_925_temp_057.txt.gz
Temp
23 23 23 23 22 22 22 23 24 25 25 25 25 25 25 25 24 23 23 23 22 23 22 22 23 23 23 23 23 23 23 23 25 26 24 24 25 26 25 26 26 26 24
24 23 23 23 23 22 22 23 23 25 26 25 25 25 25 25 24 23 23 24 23 23 23 23 23 23 22 22 23 22 23 23 23 24 24 24 23 24 25 25 25 24 24
24 24 23 23 23 23 23 23 23 24 26 25 25 25 25 24 24 23 24 23 23 23 24 23 23 23 23 24 23 24 24 22 22 22 24 24 23 23 23 24 24 23 23
25 25 24 23 23 23 23 23 22 23 25 25 25 25 24 24 24 23 23 23 23 23 23 23 23 23 23 23 23 23 23 23 23 22 23 24 24 24 22 23 24 24 24
25 25 24 23 23 23 23 22 22 22 24 25 24 24 24 23 24 24 23 23 23 23 23 24 23 24 24 24 24 24 24 23 24 25 25 25 25 25 25 25 25 25 24
25 24 24 23 23 23 22 22 22 22 23 23 23 23 23 24 24 25 25 24 24 23 24 24 23 24 26 26 26 25 24 23 23 24 25 26 25 24 25 24 25 24 25
24 24 24 23 23 22 22 22 22 22 22 22 22 22 23 23 24 25 26 25 24 24 24 24 24 25 24 24 24 26 25 25 24 23 23 24 24 24 23 23 23 23 23
24 24 24 23 23 22 22 22 22 22 22 22 22 22 22 23 24 25 25 25 24 24 24 24 24 24 24 24 23 24 24 23 23 23 22 24 22 23 22 23 22 22 21
24 24 23 23 23 23 22 22 22 22 22 22 23 22 22 23 23 25 24 22 23 23 23 23 23 23 23 23 23 23 23 23 24 23 22 22 22 22 22 21 20 20 20
25 24 23 23 23 23 23 22 22 23 23 23 23 22 22 23 24 25 24 22 23 23 23 23 23 23 23 23 22 23 23 24 24 24 24 23 22 22 22 22 20 20 20
25 24 23 23 23 23 23 23 23 23 23 23 23 23 22 22 22 23 24 22 23 24 24 25 24 24 23 23 23 22 22 23 23 23 23 22 22 22 22 22 22 22 20
25 24 23 23 24 24 23 23 23 23 23 23 23 23 24 23 22 23 24 23 23 23 24 25 24 23 23 23 23 23 23 23 22 22 22 21 21 22 22 22 22 21 21
24 24 24 24 23 24 23 23 23 23 24 24 25 25 25 25 24 23 24 24 24 22 23 24 24 23 23 23 23 23 23 22 22 20 20 21 21 22 21 21 21 21 21
24 24 24 24 24 24 24 24 24 25 24 25 26 26 26 26 25 25 23 22 22 22 22 22 22 22 22 22 22 22 22 22 22 21 21 21 21 21 20 20 20 20 21
24 24 24 24 23 24 24 25 25 25 26 26 26 26 27 27 26 25 25 24 23 23 23 21 21 21 21 21 21 21 21 21 21 21 20 20 20 20 20 19 20 20 21
23 24 22 24 24 25 25 22 23 24 24 24 25 25 26 25 25 25 25 25 25 25 22 21 22 21 22 21 21 21 21 21 21 20 20 20 20 19 19 19 20 20 18
21 20 21 22 23 21 22 23 24 21 23 23 23 24 23 23 24 24 24 24 22 22 21 22 22 22 21 21 21 21 21 21 20 20 20 20 19 18 19 20 20 19 20
20 22 21 24 22 23 21 21 22 23 24 23 22 22 23 23 23 23 23 23 22 22 21 21 21 21 20 20 20 20 20 20 20 20 20 19 19 19 20 20 19 19 19
19 21 21 22 22 22 22 22 23 23 24 24 19 20 20 21 22 22 23 22 21 21 20 20 20 19 19 18 19 19 19 19 18 18 18 18 19 18 19 19 19 16 16
17 18 18 21 23 23 22 21 20 21 21 22 22 21 19 18 19 20 20 20 20 20 20 19 18 18 17 18 18 18 17 17 17 16 16 16 16 17 19 19 19 18 17
15 17 18 21 23 24 23 22 20 19 19 20 21 19 18 19 20 18 18 17 18 18 17 17 17 17 17 16 16 16 17 17 17 16 16 16 17 18 18 17 17 18 18
13 15 18 20 22 22 23 23 21 20 20 19 17 17 17 18 19 17 15 14 15 15 15 16 16 15 16 15 15 15 16 16 16 16 16 17 17 17 17 17 17 17 17
12 13 16 19 20 21 21 22 22 21 19 19 17 16 16 15 15 14 13 13 14 15 14 15 15 15 15 15 15 15 15 15 15 15 15 16 17 17 18 18 18 18 17
12 13 16 19 20 21 21 21 19 18 18 18 17 16 16 14 12 12 12 11 10 11 12 12 13 13 13 14 14 14 14 15 15 15 15 16 16 16 17 17 18 18 17
9 9 10 11 14 15 15 15 15 13 12 12 11 12 11 10 10 10 9 8 9 9 9 9 9 10 11 11 12 13 14 15 16 16 16 16 17 17 16 17 17 16 16
6 6 6 6 6 6 7 6 6 7 7 7 7 8 8 8 8 8 8 7 7 7 7 8 7 7 8 10 11 12 13 14 15 16 16 16 17 17 17 17 18 17 16

GFSGL_925_temp_060.txt.gz
Temp
26 26 26 25 25 25 25 25 25 25 25 24 25 25 25 25 25 25 25 26 25 25 25 25 25 25 26 27 27 27 27 27 28 28 29 29 26 24 25 25 25 24 25
27 26 25 26 26 26 25 25 25 24 25 25 25 25 25 26 26 25 25 26 25 25 25 25 25 25 24 25 26 26 27 27 27 27 27 27 27 27 25 24 24 26 27
27 26 26 26 26 26 25 25 25 24 24 25 25 25 25 26 25 25 25 25 26 25 25 26 26 25 25 26 26 27 27 26 26 26 26 27 28 27 27 25 25 25 25
28 28 27 26 26 26 26 25 25 24 24 25 25 25 25 25 26 26 26 25 25 26 26 26 26 26 26 25 25 25 25 26 27 27 27 28 28 28 28 28 27 27 28
29 29 28 26 26 26 26 25 25 25 25 25 25 25 25 26 26 26 26 26 26 26 26 26 26 26 26 25 26 27 26 26 27 28 29 29 29 29 29 29 28 28 28
30 29 28 26 26 26 25 25 24 25 25 25 25 25 25 26 27 26 26 26 26 26 26 26 26 26 25 25 24 25 25 25 26 26 28 28 28 27 28 28 28 28 28
29 28 28 26 26 25 25 25 25 24 25 24 25 25 25 25 26 26 26 26 27 26 26 26 26 27 27 26 26 25 25 25 24 23 24 25 26 26 26 26 26 26 26
28 27 27 26 25 25 25 25 24 25 25 24 25 25 25 25 25 25 25 25 25 25 26 26 26 26 26 27 27 26 26 26 25 24 22 23 23 24 24 24 24 23 23
28 27 26 26 26 25 25 25 25 25 25 25 25 25 24 25 25 25 25 24 25 24 25 25 26 25 25 25 25 25 25 26 26 26 26 25 25 24 23 22 21 23 23
27 27 26 26 26 25 25 25 25 25 25 26 26 25 25 25 24 24 24 24 26 26 25 25 25 25 25 25 24 24 25 25 26 26 26 26 25 24 23 23 22 23 24
27 27 27 26 25 25 25 25 25 25 26 25 26 26 25 25 25 24 24 23 26 27 27 28 28 27 26 25 24 23 24 25 25 25 25 25 25 25 25 24 23 23 22
27 28 27 26 26 26 25 25 25 25 25 25 25 26 26 25 25 24 24 23 24 26 27 29 29 28 26 25 24 24 23 23 23 23 24 25 25 26 25 24 23 22 22
27 27 26 26 25 27 25 25 25 25 27 26 27 27 28 28 26 25 24 24 23 23 26 27 27 26 25 24 24 23 23 22 23 24 23 23 22 22 22 22 21 21 22
27 26 26 26 26 26 26 26 27 27 27 29 29 29 29 29 29 29 25 24 23 22 22 23 24 24 24 24 24 23 22 23 24 22 21 22 22 21 21 21 20 21 24
26 27 27 27 25 26 27 27 28 28 29 29 30 30 30 30 30 29 29 28 26 24 24 24 25 25 24 23 23 24 24 23 22 22 21 21 21 20 21 20 20 23 24
27 27 28 28 27 28 28 25 25 25 27 27 28 29 30 30 28 28 27 27 26 26 23 26 26 23 22 23 24 23 22 22 22 21 21 21 21 21 22 22 23 24 24
24 25 25 26 27 27 26 27 27 25 25 25 25 25 26 26 26 26 25 24 24 23 23 27 26 26 26 24 23 23 23 22 21 21 22 22 21 22 22 23 24 24 23
21 22 22 24 25 22 23 24 25 26 26 28 24 24 24 24 24 24 24 23 22 22 21 22 23 23 22 22 22 22 22 21 21 21 22 22 23 23 24 24 24 23 23
20 20 22 24 25 24 24 23 23 24 25 27 26 20 20 21 22 22 22 23 25 24 22 21 21 21 21 21 21 21 21 22 23 23 23 23 23 23 23 23 23 22 20
21 19 21 23 23 24 23 23 24 24 25 26 28 27 20 20 19 20 21 21 22 23 23 21 20 20 21 19 20 21 22 22 22 21 22 22 22 21 22 23 23 22 18
20 21 21 24 26 26 26 24 25 25 23 25 26 24 23 24 23 21 20 21 22 22 22 21 21 21 21 21 22 22 23 23 22 22 21 20 20 21 21 21 20 20 19
19 20 22 24 26 26 27 27 27 26 26 26 25 20 20 24 25 24 22 20 17 17 16 17 19 18 16 17 18 19 21 21 21 21 19 18 19 19 19 19 20 20 19
18 18 19 22 24 24 24 25 27 27 27 26 24 22 21 22 21 19 18 18 16 15 14 15 15 16 14 14 15 15 17 17 17 17 17 17 18 18 19 19 19 20 20
13 15 15 19 22 23 25 26 26 21 21 23 23 22 22 20 19 16 15 14 13 13 13 13 13 13 13 13 13 14 13 15 15 17 17 17 17 18 18 18 20 20 20
9 9 8 8 10 12 15 14 15 14 13 13 15 17 17 17 16 15 14 13 12 10 10 10 9 10 9 10 10 11 13 15 15 15 16 17 19 19 18 19 20 20 19
4 5 5 4 4 4 4 4 4 5 5 5 6 7 8 9 10 10 9 8 9 9 9 8 9 9 8 9 10 11 12 13 14 15 16 16 18 19 19 19 19 19 20

GFSGL_925_temp_063.txt.gz
Temp
26 26 26 25 25 25 26 26 26 27 27 27 27 26 26 26 26 26 26 27 26 25 26 27 26 26 27 29 29 28 29 29 29 29 30 30 29 28 27 26 26 26 26
27 27 26 26 26 26 25 26 26 26 26 26 26 26 26 26 26 26 26 27 26 27 26 26 26 26 25 26 27 28 29 29 28 28 28 28 28 28 28 27 26 26 26
28 27 27 27 26 27 26 26 26 26 25 26 26 25 26 26 26 26 26 26 27 26 27 26 26 26 26 27 27 28 28 28 27 27 28 28 29 29 29 28 28 27 27
29 29 28 27 27 27 27 26 26 26 25 25 26 26 26 26 26 26 26 26 26 26 27 27 26 27 26 26 26 26 26 27 28 28 28 29 29 30 30 30 30 30 30
31 30 29 28 27 27 27 27 26 26 25 25 25 26 26 26 27 26 27 27 26 26 27 27 26 27 27 27 27 27 27 27 28 28 29 30 31 31 30 30 29 29 30
31 30 30 28 28 27 27 27 26 26 26 25 26 26 26 27 28 27 27 27 27 27 26 26 27 27 27 26 26 26 26 25 26 27 28 29 28 28 29 29 28 28 28
31 30 30 29 28 27 27 27 26 26 26 26 25 26 26 26 28 28 27 27 27 27 27 26 27 28 28 27 26 26 26 26 25 24 24 25 26 26 26 26 26 26 26
31 31 30 29 28 27 27 27 26 26 26 26 26 26 26 26 26 27 27 27 27 27 27 27 26 27 27 28 27 27 27 26 25 26 25 25 24 24 25 25 25 24 24
31 30 30 29 28 27 27 27 27 26 26 26 26 26 26 26 27 27 26 26 26 26 26 26 27 27 27 26 26 26 26 26 27 27 27 27 27 26 26 25 24 23 25
31 30 30 29 28 27 27 27 26 26 26 27 27 26 26 26 26 26 26 26 27 27 26 25 25 26 26 26 26 25 25 25 26 26 26 27 27 26 26 25 24 23 24
30 30 29 28 28 27 27 26 26 26 28 26 27 27 26 26 26 25 25 25 27 28 28 29 28 28 27 27 26 25 25 25 25 25 26 26 26 26 26 25 25 24 23
30 30 29 28 28 27 27 26 26 26 26 27 26 27 28 27 26 26 25 25 25 27 29 31 30 30 30 29 28 27 26 25 24 24 25 25 26 27 28 26 26 25 24
30 29 28 28 27 28 26 26 26 26 27 27 28 28 29 29 27 27 26 25 25 24 26 29 29 29 28 27 26 26 25 24 24 25 26 27 28 27 25 23 23 22 22
29 28 28 27 27 28 27 27 27 28 27 29 29 30 30 30 31 30 27 26 25 24 24 24 26 26 26 26 26 25 24 24 25 26 27 27 25 24 22 22 21 21 22
28 28 28 28 27 27 28 28 28 29 30 30 31 31 32 32 32 32 32 27 25 23 24 24 25 26 26 26 27 26 25 25 25 25 26 26 23 21 21 21 21 22 24
27 28 29 29 27 28 29 26 27 28 29 28 28 28 28 29 29 31 31 30 28 27 24 27 27 28 28 28 27 26 25 25 25 24 23 22 22 22 22 22 22 24 26
26 28 30 30 30 30 29 29 28 25 26 26 26 26 27 26 25 26 26 27 27 26 27 28 28 29 28 26 25 23 24 24 24 23 22 22 22 22 22 22 25 26 26
20 23 27 29 30 31 30 30 30 29 28 28 27 26 27 27 26 24 24 24 25 25 26 28 28 29 29 28 25 24 25 24 23 23 23 23 23 24 25 26 26 26 25
19 20 21 24 25 26 25 24 27 29 28 25 24 24 25 26 27 25 24 23 26 28 27 26 25 24 24 25 24 23 24 24 23 23 22 24 24 25 26 25 25 25 24
19 20 21 22 23 24 25 25 26 26 25 26 26 25 24 22 27 26 22 21 24 25 26 26 25 24 24 22 22 23 22 22 22 23 24 24 25 25 25 25 25 25 24
19 20 22 23 23 24 24 24 25 27 28 25 26 26 25 24 26 24 22 21 22 22 22 23 23 22 22 22 22 23 24 24 25 24 24 24 24 23 23 24 24 25 24
20 20 21 23 24 25 26 24 23 23 25 27 25 23 24 24 25 25 23 22 22 21 21 22 23 23 21 21 20 22 23 23 23 23 23 23 22 22 22 21 22 22 21
16 18 21 22 22 23 27 28 29 28 29 29 29 27 24 23 23 22 22 21 20 20 19 20 20 20 19 19 19 19 20 21 20 19 19 19 18 19 19 19 19 20 20
11 11 12 15 15 18 19 19 25 21 21 20 23 25 24 22 19 18 18 17 17 16 16 16 16 16 16 17 17 17 15 15 16 16 16 18 18 18 18 18 18 20 20
7 7 7 6 9 9 10 11 13 13 13 13 14 14 15 17 18 17 17 16 15 14 13 13 12 12 10 9 9 11 13 14 14 15 16 16 18 19 19 19 20 20 21
3 4 4 4 4 4 4 4 4 4 4 5 5 7 8 8 9 10 10 10 10 9 8 9 9 9 8 7 9 10 11 12 13 14 16 16 17 19 19 18 18 18 19

GFSGL_925_temp_069.txt.gz
Temp
23 23 23 24 25 26 26 27 27 28 28 27 26 26 25 25 25 25 25 25 25 25 25 25 25 26 27 26 26 27 27 27 26 28 28 28 28 28 28 28 28 28 28
23 24 23 24 24 24 25 26 27 27 27 26 27 26 26 26 26 25 25 25 25 25 25 25 25 26 26 26 26 26 26 26 26 26 27 28 28 27 28 28 28 28 28
24 24 24 23 23 24 24 26 27 27 27 27 26 26 26 26 26 26 25 25 26 25 25 25 26 25 25 26 26 26 26 26 26 25 26 26 26 27 28 28 28 28 28
25 24 24 24 23 23 24 25 26 27 26 27 27 26 26 26 26 26 25 25 25 25 25 25 26 26 26 26 26 26 26 26 26 26 26 26 26 27 27 27 27 27 27
25 25 24 24 24 23 24 24 25 26 26 26 26 26 26 26 26 26 26 25 25 25 26 26 26 26 26 26 26 26 26 25 25 25 25 25 25 26 26 26 26 26 26
27 26 25 25 24 24 24 24 24 24 25 26 25 25 26 25 25 25 26 25 25 25 25 25 25 26 26 26 26 26 26 26 25 25 25 24 25 25 26 26 25 23 23
29 27 26 25 25 24 24 24 24 24 24 24 24 24 25 25 25 25 25 25 26 26 25 25 25 26 26 26 26 26 26 26 26 26 25 25 24 26 26 25 24 24 23
28 28 26 26 25 25 25 24 24 24 24 24 24 24 24 24 25 25 25 26 26 26 26 26 26 26 26 26 26 26 26 27 27 26 26 26 26 26 25 25 25 24 23
24 27 27 26 25 25 25 25 24 24 24 24 24 24 24 24 25 25 25 26 26 26 26 26 26 26 26 26 26 26 26 26 26 26 26 25 26 26 25 25 23 22 22
24 27 27 27 26 25 25 25 25 25 25 24 24 24 24 24 24 25 25 25 25 25 26 26 26 26 26 26 26 26 25 26 26 27 26 26 25 25 25 25 25 23 22
25 27 28 28 27 26 26 25 25 25 25 25 24 24 24 24 24 25 25 25 24 24 25 25 26 26 26 26 26 26 25 26 25 25 25 25 25 25 25 25 25 25 24
21 28 28 28 27 26 26 25 25 25 25 25 25 25 24 25 25 24 25 25 25 24 25 25 25 26 26 26 27 27 26 26 25 24 24 24 25 25 25 25 25 25 25
18 22 28 27 28 27 26 25 25 25 25 25 25 25 25 25 25 25 25 25 25 25 25 25 25 26 26 26 26 27 27 26 25 23 24 24 25 25 25 24 24 25 24
17 20 26 27 27 27 26 26 25 25 25 25 25 25 25 25 25 25 25 25 25 25 25 25 25 25 26 26 26 26 27 27 26 26 25 25 25 24 25 25 24 24 24
16 19 25 27 27 27 27 26 26 26 26 25 26 25 26 26 25 26 26 26 26 26 25 23 23 24 24 24 24 24 25 25 25 25 25 24 24 24 24 24 24 24 22
15 18 23 27 27 27 27 26 26 26 26 26 26 26 26 26 27 26 27 27 27 28 23 22 22 22 22 22 23 24 25 25 25 25 25 24 24 24 24 25 24 23 23
14 15 18 24 27 26 26 26 24 23 26 26 26 26 27 27 27 28 28 27 28 26 23 22 22 22 23 23 24 24 24 25 26 25 25 26 25 25 25 24 24 23 23
14 15 16 19 24 26 26 25 25 22 22 23 26 27 26 25 26 27 28 28 25 23 23 23 23 23 24 25 25 25 26 26 25 26 25 25 25 24 24 23 23 23 24
13 14 15 18 20 24 26 26 25 23 23 22 21 22 23 24 23 24 25 26 24 23 23 23 24 24 25 26 27 27 26 26 26 25 25 24 24 23 23 23 24 24 24
13 14 15 17 19 22 22 23 25 24 23 19 20 23 22 22 22 23 23 24 24 25 25 26 26 25 25 25 25 23 25 25 25 25 23 23 23 23 23 24 24 24 23
11 13 13 14 15 16 18 20 20 21 21 20 20 21 22 22 22 23 22 22 23 23 24 25 23 24 24 23 23 29 20 22 23 23 23 23 23 23 23 23 23 23 22
10 10 11 11 12 14 14 16 17 18 19 20 20 20 20 20 21 21 19 19 20 20 20 19 18 18 20 19 20 20 21 20 21 21 20 21 21 21 21 21 21 20 20
8 8 8 8 9 10 11 11 11 12 14 18 19 18 17 16 17 16 15 14 16 16 16 16 15 15 15 15 17 17 19 18 19 19 19 20 20 19 19 19 19 19 19
5 5 5 5 6 6 7 8 9 8 8 9 10 11 12 12 12 12 12 12 12 12 12 12 11 12 14 14 15 13 14 15 16 16 18 18 18 18 18 18 18 19 19
3 3 3 3 4 4 4 4 5 5 6 7 7 6 6 6 7 6 8 9 8 9 9 8 9 10 10 11 11 12 12 13 14 15 16 16 16 16 16 17 18 18 19
3 2 2 2 2 2 2 2 2 2 3 3 3 5 7 8 6 6 3 4 7 8 8 7 8 8 9 9 9 10 11 12 13 14 15 15 14 14 15 16 16 17 17

GFSGL_925_temp_075.txt.gz
Temp
23 23 24 25 26 26 25 25 25 25 25 25 25 25 25 25 24 24 24 24 24 24 24 24 24 24 25 25 25 25 25 25 23 25 26 26 26 26 27 26 27 26 26
23 23 23 24 25 25 26 26 25 25 25 25 25 26 25 25 25 25 24 24 24 24 24 24 24 24 24 24 24 25 25 25 24 24 25 26 26 26 26 26 26 26 26
22 23 23 23 24 25 26 26 26 25 25 25 25 25 25 26 25 25 25 25 24 24 24 24 24 24 24 25 24 25 25 25 24 24 24 25 25 25 26 26 26 26 26
23 22 22 23 23 24 25 26 26 26 25 25 25 25 26 26 26 25 25 25 24 24 24 24 25 25 25 25 25 25 25 24 24 24 24 24 24 25 25 25 25 25 25
23 22 22 22 23 24 24 25 25 26 26 26 25 25 25 25 26 26 26 25 25 24 24 24 24 25 25 25 24 25 24 24 24 24 23 24 24 24 24 24 23 24 25
23 23 23 22 22 22 23 24 24 24 25 25 25 25 25 24 25 25 26 25 25 25 25 25 25 25 25 25 25 24 24 24 24 24 24 23 23 24 25 24 23 22 23
23 23 23 22 22 22 22 23 23 23 24 24 24 24 24 25 25 25 25 25 25 25 25 25 25 25 25 25 24 24 24 24 24 24 23 24 24 24 24 24 23 22 22
23 23 23 23 22 22 22 22 23 23 23 23 23 23 24 24 25 26 25 25 25 25 25 25 25 25 25 25 25 24 25 25 25 25 24 25 25 25 24 24 23 22 22
20 22 23 23 22 22 22 22 22 22 22 22 22 23 22 23 24 25 25 24 24 24 25 25 25 25 25 25 24 24 25 25 25 25 25 25 25 25 25 23 23 21 21
17 18 20 22 23 22 22 22 22 22 22 22 22 22 23 22 23 23 24 24 23 23 23 24 24 25 25 25 24 24 24 25 25 25 26 25 25 25 25 24 24 22 21
15 16 18 19 20 22 23 23 22 22 22 22 21 22 22 22 22 23 23 23 23 22 22 22 23 25 25 25 24 24 24 25 25 24 25 24 24 24 24 24 24 23 22
13 15 16 18 19 19 22 23 22 22 22 22 22 22 22 22 23 23 23 23 23 23 23 22 23 24 25 26 25 25 25 24 24 23 23 23 23 24 26 25 25 24 23
13 13 15 16 18 19 20 23 22 21 22 22 22 22 22 22 22 23 23 23 23 23 22 23 23 23 24 24 24 24 24 24 23 22 22 23 24 25 24 24 24 24 23
12 13 15 15 16 18 19 21 23 22 22 23 23 23 23 23 22 22 22 22 23 23 23 22 23 23 23 23 23 23 23 24 24 23 23 24 24 24 24 24 23 23 23
11 13 13 14 15 16 17 20 22 23 23 22 24 24 23 23 23 23 23 23 23 23 23 22 21 21 21 21 22 23 23 23 23 24 23 24 24 24 24 24 23 24 24
10 11 12 13 14 15 17 20 22 23 23 23 24 24 24 24 24 23 23 23 24 24 21 21 21 21 21 21 21 21 21 23 23 23 23 24 23 24 24 24 23 24 24
10 10 11 12 13 14 16 18 22 22 23 24 24 23 24 24 24 24 24 24 24 23 21 21 21 21 21 21 21 21 21 22 22 22 22 22 22 22 23 23 23 23 23
9 10 11 12 13 14 15 17 19 21 21 22 24 24 24 24 24 25 24 24 21 21 21 21 21 21 21 21 21 21 21 22 21 21 21 21 21 21 22 21 21 21 20
8 9 11 11 12 13 14 17 19 21 22 22 22 23 24 24 24 24 24 23 21 21 21 20 21 21 21 22 22 22 22 23 23 22 21 21 21 22 21 21 21 22 21
8 9 10 10 11 12 13 14 16 19 21 21 21 23 23 22 21 22 22 23 21 21 22 21 21 21 21 21 21 22 23 22 23 22 23 22 22 23 24 23 22 21 21
7 8 9 9 10 10 10 12 13 15 18 21 21 23 25 23 20 20 19 19 19 20 21 20 20 20 21 21 21 21 22 23 24 22 22 22 22 22 22 21 21 22 20
6 7 7 7 7 8 8 9 10 12 14 18 19 19 19 19 19 19 18 18 17 18 18 18 18 19 19 18 18 19 20 21 21 21 21 21 21 21 19 20 20 20 20
5 6 6 5 6 6 6 7 7 8 9 11 14 14 16 16 15 13 12 11 12 13 12 14 13 13 14 15 15 16 16 17 18 19 19 19 20 20 19 19 19 19 19
4 4 4 4 4 4 4 5 6 5 6 6 7 8 7 7 8 7 8 8 8 8 7 10 9 10 10 11 11 12 12 13 14 15 15 15 16 17 17 18 18 18 18
2 2 3 2 2 2 3 3 4 4 3 4 4 4 4 4 3 4 4 5 6 6 6 6 7 8 8 9 10 10 11 12 13 14 14 14 14 14 15 16 16 17 17
2 2 2 2 2 2 2 2 2 2 3 3 3 3 2 2 2 2 2 3 4 5 7 6 4 6 7 7 8 9 9 9 10 11 12 12 13 12 12 13 13 15 15

GFSGL_925_temp_078.txt.gz
Temp
23 23 25 25 25 24 25 26 25 25 25 25 25 24 25 25 25 24 23 24 23 23 23 23 24 24 24 24 24 24 24 24 22 24 25 25 25 25 26 26 26 26 26
23 23 23 25 25 25 24 26 26 25 25 25 25 24 24 25 25 24 24 24 24 23 24 23 24 24 24 24 23 24 23 23 23 23 24 25 25 25 25 25 26 25 25
22 22 22 23 24 25 25 25 25 26 25 25 25 25 25 25 25 25 24 24 24 24 24 23 24 24 24 24 24 24 24 23 23 22 23 23 24 25 25 25 25 26 25
22 22 22 23 24 24 25 25 25 25 26 26 26 25 25 25 25 25 25 24 24 25 24 24 24 24 24 24 24 24 24 24 23 23 23 23 24 24 24 24 24 25 25
23 22 22 23 23 23 23 24 25 25 25 25 26 26 25 25 25 25 25 25 25 25 25 25 24 24 24 24 24 24 24 24 23 23 23 22 22 23 23 23 23 23 25
22 22 22 22 22 22 23 23 23 24 24 25 25 25 26 25 26 25 25 25 25 25 25 25 25 24 24 24 24 24 24 24 23 23 22 22 22 23 23 23 23 22 23
21 22 22 22 22 22 22 22 23 23 24 24 24 25 25 25 26 26 26 25 25 25 25 25 25 25 25 25 25 24 24 24 24 23 22 22 22 23 23 23 22 21 21
20 21 21 21 22 21 21 21 22 22 22 23 23 24 24 25 25 26 26 25 25 25 25 25 25 25 25 25 25 24 24 24 24 24 24 24 24 24 24 23 22 22 22
17 18 20 21 21 21 21 21 21 21 22 22 23 23 23 23 24 25 25 24 24 25 25 25 25 25 25 25 24 24 24 24 25 25 25 25 25 25 24 23 22 21 22
15 16 17 18 20 20 21 21 21 21 21 21 21 22 23 24 24 24 23 22 22 22 23 24 25 25 25 25 24 24 23 24 25 25 25 25 25 25 24 24 24 21 21
14 15 15 17 18 19 20 21 21 21 21 21 21 22 22 23 23 23 23 22 21 22 22 23 23 25 25 25 24 23 24 25 24 24 24 24 24 24 24 24 24 23 22
14 14 15 16 17 18 18 19 20 21 20 20 21 21 21 22 23 23 23 22 22 22 22 22 22 23 24 25 24 24 25 23 23 22 21 21 22 23 25 25 24 24 23
12 14 15 14 16 16 17 18 19 20 21 21 21 21 21 21 21 22 23 23 23 22 22 22 22 23 23 23 23 23 23 22 22 20 21 21 23 24 24 24 24 23 23
11 12 14 15 15 16 16 17 18 20 21 21 21 22 22 21 21 21 22 22 22 22 22 22 22 22 22 22 22 22 22 22 22 22 22 22 23 23 24 24 23 23 22
11 12 12 12 13 14 15 16 17 18 20 21 22 22 22 22 22 22 22 23 23 23 22 21 20 20 20 20 21 21 21 22 22 22 22 21 22 23 23 24 23 23 22
9 10 10 11 12 13 14 15 18 19 19 20 21 22 23 23 23 23 23 23 23 23 20 20 20 20 21 21 21 21 20 20 21 21 21 21 22 22 23 23 23 22 22
8 8 9 10 11 12 13 14 16 18 19 20 21 21 22 23 24 23 23 23 23 22 20 20 20 21 21 21 21 21 21 20 21 21 21 21 21 21 21 21 21 21 21
7 7 8 10 11 12 12 13 14 16 18 19 21 21 22 22 23 23 23 23 22 21 20 20 21 21 21 21 21 21 21 21 21 20 21 21 20 20 20 20 20 21 21
6 7 8 9 10 11 11 12 13 15 17 18 20 22 22 22 22 22 22 22 20 20 20 20 21 21 21 21 21 21 21 21 21 21 21 21 20 20 20 20 21 21 21
6 6 7 8 9 10 11 11 12 13 14 16 19 21 20 20 20 20 22 21 21 21 21 20 20 20 21 21 21 21 20 21 21 21 21 21 21 20 20 21 20 20 20
6 6 6 7 8 8 9 9 10 11 12 13 15 18 20 20 20 19 19 19 19 20 20 20 20 20 20 20 21 21 21 21 21 21 21 21 21 20 21 20 20 20 19
5 6 6 7 7 7 7 7 8 8 9 10 13 16 19 19 19 19 19 19 18 18 18 18 18 18 18 19 19 19 19 20 20 20 20 20 20 20 20 20 20 19 19
4 4 5 5 5 5 6 6 6 7 7 8 9 10 13 14 13 12 12 12 12 13 13 14 13 14 14 15 15 16 16 16 17 17 17 18 19 19 20 20 20 18 18
3 3 3 3 3 3 4 4 4 5 5 6 6 6 7 8 8 7 7 7 7 7 8 8 9 9 10 11 12 13 13 14 14 15 15 16 16 17 17 17 17 17 17
2 2 2 2 2 2 2 2 3 3 3 4 4 4 4 4 5 5 4 4 4 4 4 5 5 7 8 9 9 10 11 12 13 14 14 14 13 14 15 15 15 15 15
2 2 2 2 2 2 1 1 2 2 2 2 2 2 3 2 2 3 2 2 3 3 4 4 4 5 6 6 7 8 10 11 11 11 12 12 12 12 11 11 12 12 13

GFSGL_925_temp_084.txt.gz
Temp
26 26 26 25 25 24 24 24 24 25 25 25 25 25 25 25 24 24 25 25 24 24 25 25 24 25 26 27 27 27 27 28 28 29 29 29 26 26 26 26 26 27 29
27 26 26 25 25 25 24 25 24 24 25 25 25 25 25 25 25 24 25 26 25 25 25 25 25 25 24 25 26 26 27 27 27 27 27 27 27 27 26 25 27 28 28
27 26 25 25 25 24 25 25 25 24 24 25 25 25 25 25 25 25 25 25 25 25 25 25 25 25 25 26 26 27 27 27 27 27 27 28 28 27 27 27 27 28 29
28 27 25 24 24 24 23 25 25 24 24 25 25 25 25 25 25 25 25 25 25 25 25 25 25 25 25 25 25 25 25 25 27 27 27 28 28 28 28 28 29 29 29
25 26 27 25 24 23 23 23 24 25 24 24 25 25 25 25 26 25 25 26 25 25 26 25 25 25 25 25 26 26 26 26 27 28 29 29 29 29 28 28 28 29 29
21 23 25 25 25 25 24 23 23 24 24 24 24 25 25 26 27 26 26 25 26 25 26 26 25 25 24 24 25 25 25 25 25 26 28 28 27 27 28 28 28 28 28
17 21 22 23 23 24 24 24 23 23 24 24 24 24 25 25 26 26 25 25 27 26 26 26 26 27 25 25 25 25 25 24 24 24 25 25 26 26 26 25 26 26 26
14 15 16 18 20 23 23 23 23 23 24 24 24 24 24 24 25 25 25 24 25 26 26 26 26 26 27 26 26 26 25 25 25 24 23 24 24 25 25 25 25 24 25
14 13 14 15 16 18 21 23 23 23 23 24 24 24 24 24 24 24 24 24 25 24 25 26 26 26 26 26 26 26 26 26 27 26 25 25 25 24 25 24 26 27 29
16 15 13 14 15 15 18 20 21 22 23 23 24 24 24 24 23 23 23 24 25 25 26 25 25 25 25 25 24 25 25 26 27 27 26 25 25 25 25 24 24 26 28
15 15 16 14 14 14 15 17 19 21 21 22 23 24 24 24 23 23 23 23 25 26 26 27 27 26 25 24 24 24 25 26 27 26 26 27 27 27 27 26 24 25 27
15 15 15 15 16 15 15 15 17 19 20 21 21 22 24 24 24 23 22 22 23 25 26 28 28 27 27 26 25 24 23 24 25 27 27 28 29 29 29 29 27 25 25
15 15 15 14 15 16 16 15 16 17 19 20 19 20 22 24 23 24 23 23 22 21 24 26 26 26 26 25 25 24 23 22 23 26 27 28 28 29 29 28 27 26 24
14 15 16 16 14 15 17 18 17 16 17 20 22 21 22 22 24 25 25 23 23 22 21 22 23 24 24 24 24 23 22 23 24 26 27 28 28 29 29 28 27 28 27
14 15 15 17 17 15 15 17 17 17 16 15 18 20 21 22 23 23 24 25 26 24 22 22 24 24 24 25 25 25 25 24 23 25 26 27 28 28 28 28 28 28 28
13 14 16 15 16 17 16 16 16 15 14 14 15 14 16 17 19 19 20 21 21 23 22 23 25 26 27 27 26 26 26 26 26 26 26 26 27 28 28 28 28 28 28
12 13 14 13 15 16 16 17 17 16 15 14 15 15 16 17 17 18 19 20 20 20 21 24 25 27 27 27 25 24 24 25 25 25 26 27 27 27 28 28 29 28 28
10 10 11 13 14 14 14 15 16 16 15 14 14 16 16 17 18 18 19 19 17 19 20 21 23 25 26 25 24 24 25 25 25 26 26 26 26 27 27 28 28 28 28
8 9 10 11 12 11 11 13 13 13 13 14 14 16 17 16 16 17 18 17 18 21 21 20 23 24 25 24 24 24 24 25 24 24 24 25 24 26 27 27 28 28 27
8 8 8 8 9 9 10 11 11 12 12 13 14 15 15 14 14 15 17 17 16 20 24 24 22 24 24 24 24 23 23 23 23 23 23 22 22 22 22 22 23 24 24
8 9 9 8 8 8 10 10 10 11 12 13 13 14 13 10 12 14 15 16 17 17 20 22 23 23 23 23 22 22 22 22 22 22 22 22 22 21 21 21 21 22 22
6 6 6 7 8 8 8 9 10 11 12 11 11 11 10 10 10 12 12 13 14 14 17 19 19 19 20 20 20 20 21 21 21 21 21 21 21 21 21 21 21 21 21
5 5 6 6 7 7 7 8 9 10 10 10 9 9 8 8 7 9 9 9 10 11 12 14 15 15 16 17 18 18 18 18 18 18 18 18 19 20 20 20 20 20 20
3 3 3 3 4 5 5 6 7 7 6 7 7 7 6 5 5 6 6 6 7 8 7 9 10 11 11 13 12 12 14 15 17 17 16 15 16 17 17 18 18 19 19
1 1 2 2 3 3 4 4 5 5 5 5 5 4 4 4 3 4 4 4 5 5 5 6 7 7 8 8 10 11 12 15 15 13 13 14 15 15 15 16 15 15 16
1 0 1 1 1 2 2 2 3 3 3 3 3 3 3 2 2 2 2 2 3 3 4 4 5 6 6 7 8 10 10 11 12 12 12 12 12 12 12 12 12 12 12

GFSGL_925_temp_087.txt.gz
Temp
27 27 27 26 26 25 26 26 26 26 26 27 26 26 26 26 25 25 25 26 25 25 26 27 26 26 27 29 29 29 29 29 29 30 30 30 28 28 27 27 27 27 29
28 28 27 27 27 27 26 26 26 25 26 26 26 25 25 26 26 25 25 27 27 26 26 26 26 26 25 26 27 28 28 28 28 28 28 28 29 29 28 27 27 28 29
29 29 28 28 27 27 27 26 26 25 25 26 26 25 25 26 26 26 25 26 26 26 26 26 26 26 26 27 27 28 28 27 28 28 28 29 29 29 29 28 28 29 29
25 27 29 27 27 27 27 26 26 26 25 25 26 26 26 26 26 26 26 26 26 27 27 27 27 26 26 26 26 26 26 26 27 28 29 29 30 30 30 29 30 30 30
21 24 24 27 26 26 26 25 25 26 26 25 25 26 26 26 27 26 26 27 26 25 26 27 27 27 26 26 26 27 27 27 27 29 29 30 31 30 29 29 29 30 30
17 18 20 21 24 25 26 24 24 23 25 26 25 25 26 26 28 27 27 27 26 26 26 26 27 27 26 26 25 26 25 25 26 27 28 29 28 28 29 29 28 28 28
15 15 17 18 20 22 23 24 24 24 24 25 25 25 25 25 26 27 27 27 27 26 26 26 26 28 27 26 25 25 26 26 25 25 25 25 26 26 26 26 27 27 27
16 15 15 15 16 17 20 21 23 24 24 24 24 25 25 25 25 26 26 26 26 26 27 27 26 27 27 27 26 26 25 24 25 25 24 25 24 24 25 25 26 25 26
18 17 15 15 15 15 17 17 19 21 23 23 24 24 25 25 25 25 25 25 26 26 26 26 26 27 26 26 26 27 27 27 27 27 26 26 26 25 25 25 26 27 28
19 18 18 16 15 16 16 16 17 18 21 22 23 25 24 24 25 24 24 24 26 26 26 25 25 26 26 26 26 26 26 26 27 27 27 26 26 26 26 25 24 25 27
18 18 18 17 17 17 17 16 16 17 18 20 21 22 23 24 24 24 24 24 24 26 27 28 27 27 26 26 26 25 25 26 26 26 26 27 27 28 27 26 26 25 26
16 17 17 18 17 18 17 17 17 16 17 19 21 21 22 22 23 24 24 24 23 24 26 28 29 29 28 28 27 26 26 25 25 26 27 28 29 29 30 30 29 27 26
16 16 17 17 18 18 17 18 20 19 19 19 21 22 23 23 22 23 23 24 23 23 23 25 26 27 27 27 27 27 26 25 24 25 26 26 27 29 29 30 30 29 27
15 15 16 17 18 18 18 19 21 22 22 19 19 20 17 18 23 22 21 20 20 20 21 21 22 24 25 26 26 25 25 24 24 25 25 26 27 28 29 30 30 30 30
15 16 16 18 18 19 19 20 19 19 19 18 18 18 18 18 18 18 18 18 18 18 19 19 22 24 24 25 25 26 25 24 24 24 25 26 28 28 29 29 30 30 30
14 16 17 17 18 18 19 20 20 19 18 17 17 15 16 16 16 18 17 17 18 18 18 19 20 23 25 27 27 27 27 26 27 26 26 26 27 28 29 29 30 30 30
11 12 13 14 16 18 18 18 19 20 20 19 18 17 16 16 16 16 17 16 17 18 19 20 21 21 23 24 26 28 29 29 28 27 27 28 28 28 28 28 29 30 30
9 9 10 12 14 15 16 18 18 19 19 20 19 18 17 17 17 17 16 16 16 17 19 19 21 22 23 22 24 25 26 27 27 26 26 27 27 28 28 28 29 29 29
9 9 9 10 11 12 13 14 15 16 17 18 19 19 19 18 17 16 16 16 15 17 18 19 20 22 21 22 23 24 25 25 25 24 24 25 25 25 26 27 28 28 29
8 9 8 9 10 10 11 12 14 15 16 17 18 19 19 18 18 16 16 16 16 16 17 18 21 22 22 22 23 24 23 24 24 24 24 24 24 24 24 24 24 25 26
6 7 8 7 8 9 10 10 11 13 14 15 16 17 17 15 16 15 13 13 13 13 14 16 18 20 21 22 22 22 22 22 23 22 23 23 23 23 23 23 23 23 23
5 5 6 6 7 7 7 8 9 10 11 13 16 17 15 14 14 13 11 10 10 11 12 12 14 16 17 19 21 21 20 20 20 21 22 22 22 22 22 22 22 21 21
6 5 6 5 5 6 6 6 7 8 9 11 13 13 13 13 13 10 8 8 8 9 9 9 11 12 14 14 16 17 19 19 18 17 18 19 20 20 20 20 20 20 21
3 3 3 3 3 3 4 4 5 5 6 7 9 9 9 9 8 7 6 6 6 7 7 7 8 9 10 12 13 13 15 17 16 15 15 16 17 17 17 17 18 18 19
2 1 1 1 2 2 2 3 3 3 4 5 5 6 6 6 5 5 4 4 5 5 5 5 6 7 8 9 10 12 12 12 14 14 14 14 15 15 15 15 15 15 15
2 1 1 0 0 0 1 1 2 2 3 3 3 3 3 4 3 3 3 2 3 3 4 4 4 6 6 6 7 8 10 11 11 11 12 12 12 13 13 13 13 13 13

GFSGL_925_temp_093.txt.gz
Temp
24 25 25 25 25 26 26 26 26 26 25 25 25 25 25 24 25 24 24 25 25 25 25 25 25 26 26 26 26 27 27 26 25 27 28 28 28 28 28 29 29 29 28
21 22 25 25 25 25 25 25 26 26 26 26 25 25 25 25 25 25 25 25 25 25 25 25 26 26 26 25 25 26 26 26 26 26 27 27 28 28 28 28 28 28 28
19 22 23 25 25 25 25 25 25 25 25 25 25 25 25 25 25 25 25 25 25 25 25 25 25 25 25 26 26 26 26 26 25 25 26 27 27 27 27 28 28 28 28
20 21 21 23 24 25 25 26 26 25 25 25 25 25 25 25 25 25 25 25 25 25 25 25 25 26 26 26 26 26 26 25 26 25 26 26 26 27 26 26 27 27 27
19 20 20 20 21 23 23 25 26 25 25 25 25 25 25 25 25 25 25 25 25 25 26 26 25 25 25 26 26 26 26 25 25 25 25 25 25 26 26 25 26 26 27
18 18 19 19 19 21 21 21 25 25 25 25 25 25 25 25 25 25 26 26 26 25 25 26 26 25 26 26 26 26 26 26 25 25 25 24 25 25 25 26 25 25 24
17 17 17 17 19 19 19 20 20 22 23 23 24 24 24 25 25 25 25 25 25 26 26 26 26 26 26 26 26 26 26 26 26 25 25 25 25 26 26 26 26 25 24
18 17 18 18 17 18 18 18 19 20 21 21 22 22 23 24 24 24 24 25 25 25 25 26 26 26 26 26 26 26 26 26 26 26 25 26 26 26 26 26 25 24 24
17 18 18 17 18 18 18 17 18 18 19 20 21 21 22 23 23 23 24 24 25 25 25 25 25 25 25 26 25 26 26 25 26 26 26 26 26 26 26 25 24 23 23
16 16 17 17 18 18 18 18 18 18 18 19 20 20 21 21 22 23 23 23 23 24 24 24 25 25 25 25 25 25 25 25 25 25 25 26 26 26 26 25 25 22 22
16 16 16 16 16 17 17 18 18 19 19 19 20 20 20 21 20 22 22 22 23 23 23 23 24 24 25 25 25 25 24 24 24 24 24 25 25 25 25 25 26 25 23
14 15 15 15 16 16 17 18 18 19 19 20 20 20 20 20 20 21 21 21 21 21 21 22 22 22 23 23 23 24 24 24 24 23 23 24 24 24 25 25 25 26 26
12 13 14 15 16 16 17 17 18 19 19 20 19 20 19 19 19 19 19 19 19 19 19 19 19 21 20 22 23 23 22 23 23 22 22 23 24 24 24 24 25 25 25
11 11 12 13 13 15 16 17 18 19 19 19 19 19 20 20 19 19 19 19 19 19 19 20 20 20 20 20 21 22 22 22 22 22 23 24 24 24 24 24 24 24 24
10 10 10 10 11 12 13 14 15 16 17 17 18 18 19 19 19 19 18 18 17 17 16 18 19 19 21 21 21 21 22 22 22 22 22 23 23 23 23 24 23 23 23
9 9 9 10 10 11 11 12 13 14 15 16 16 17 18 18 18 18 18 18 18 16 16 15 15 16 17 18 19 19 20 21 22 22 21 22 23 23 23 23 23 23 23
9 9 9 9 9 9 9 10 10 11 12 13 14 15 15 16 17 17 17 18 17 16 16 15 14 15 16 17 18 18 19 20 21 22 23 22 22 22 23 23 23 23 23
9 10 9 9 9 9 9 9 9 9 10 11 12 12 13 15 16 16 17 18 16 16 16 15 15 16 16 17 17 18 19 19 20 21 21 22 23 24 23 22 22 22 22
9 9 8 8 8 8 8 8 9 9 9 9 10 10 11 12 12 13 14 16 15 15 16 16 16 14 14 14 14 15 16 17 17 19 21 22 21 22 23 23 22 20 21
8 8 8 8 8 7 7 7 7 7 8 8 8 9 9 10 9 10 11 12 15 16 15 14 13 11 10 10 11 12 13 14 15 17 20 20 21 22 22 22 20 21 21
8 7 7 6 5 5 5 5 5 5 6 6 7 7 8 8 8 9 10 10 11 11 11 11 10 10 8 8 8 9 11 12 12 13 16 20 21 21 21 22 21 20 20
7 6 5 4 4 4 4 3 3 4 4 4 5 6 6 7 7 8 9 9 10 9 9 9 8 7 7 7 7 7 8 9 10 11 13 15 17 18 19 20 20 21 20
7 6 5 4 3 3 2 2 2 2 2 2 3 4 4 5 5 6 7 7 8 7 7 8 8 8 7 7 6 6 7 7 8 8 9 10 12 15 17 18 19 19 19
6 5 4 3 3 3 2 1 1 1 1 1 1 2 3 3 4 4 5 5 5 5 6 6 8 7 7 6 6 6 7 7 7 7 9 9 10 12 14 16 17 18 18
6 5 4 3 3 2 1 1 0 0 0 -0 -0 0 1 1 2 3 3 3 4 4 4 4 5 5 5 5 5 5 5 7 7 7 8 9 10 11 13 15 16 17 17
7 6 5 4 3 2 2 0 -0 -0 -1 -1 -1 -1 -1 0 1 1 2 2 2 2 2 2 2 3 3 3 4 4 5 6 7 8 8 9 10 10 12 14 16 16 16

GFSGL_925_temp_096.txt.gz
Temp
23 24 24 25 25 25 25 25 25 25 25 25 25 25 25 24 24 24 24 24 24 25 25 24 24 25 25 26 26 26 25 25 24 26 26 27 27 28 27 28 28 28 28
22 23 24 24 25 25 25 25 25 25 25 25 25 25 25 24 24 24 24 24 24 24 25 25 25 25 25 25 25 25 25 25 24 24 25 26 27 27 27 27 27 27 27
21 23 24 24 25 25 25 25 25 25 25 25 25 25 25 25 25 24 24 24 24 24 25 25 25 25 25 26 25 25 26 25 25 25 25 25 26 27 26 26 27 27 27
19 20 22 20 21 24 24 25 25 25 25 25 25 25 25 25 25 25 25 24 24 24 25 25 25 25 25 25 25 25 25 25 25 24 24 24 25 25 25 25 26 26 26
18 19 22 21 19 20 22 22 25 25 25 25 25 25 24 24 24 24 24 24 24 25 25 25 25 25 25 25 25 25 25 25 25 25 24 24 25 25 25 25 24 25 26
18 18 20 20 20 20 20 20 22 24 24 24 24 25 25 25 25 25 25 25 25 25 25 25 25 25 25 25 25 25 25 25 25 24 25 24 25 25 25 25 24 24 23
17 17 17 18 19 20 19 19 20 20 20 22 24 24 24 24 24 24 24 25 25 24 25 25 25 25 25 25 25 25 25 25 25 25 24 25 25 26 26 25 25 24 23
17 16 16 16 16 17 18 17 18 18 18 19 20 21 23 23 23 23 23 24 24 24 24 24 25 25 25 25 25 25 25 25 25 25 25 25 25 26 25 25 25 23 24
16 16 16 16 17 17 17 18 18 18 18 19 19 19 20 21 21 23 22 23 23 24 24 24 24 24 25 25 25 25 25 25 25 25 25 25 25 25 25 24 24 23 22
15 15 16 16 16 16 17 17 17 18 18 18 19 19 19 20 20 21 22 22 22 22 23 23 23 24 24 24 24 24 24 24 25 25 25 25 25 25 24 25 25 22 21
14 14 15 15 16 16 16 17 17 18 18 19 19 19 19 19 19 20 21 21 20 20 20 20 21 22 22 23 23 23 23 22 22 23 23 23 24 24 24 25 25 24 23
13 14 14 14 14 15 15 16 17 17 18 19 19 19 19 19 19 19 19 19 18 18 19 19 19 20 20 20 22 22 22 21 22 22 22 22 22 23 23 24 25 25 25
12 11 12 13 13 13 14 15 15 16 15 16 17 17 18 19 19 19 19 18 18 19 19 19 19 20 20 20 21 21 21 21 21 21 21 21 22 23 23 23 23 24 24
10 10 10 11 11 12 12 12 13 13 12 13 13 13 15 17 17 17 18 18 17 17 18 18 19 19 20 20 20 21 21 20 21 21 21 21 21 21 22 23 23 23 23
9 9 9 9 10 10 10 10 11 11 11 11 12 13 13 13 14 15 15 16 17 16 16 17 17 17 17 18 18 18 19 19 19 20 20 20 21 21 21 22 22 22 22
9 9 9 9 9 9 9 9 10 10 11 11 11 11 12 13 13 14 15 16 16 16 16 16 16 14 14 15 16 16 17 17 18 19 20 20 20 20 21 21 22 22 22
9 9 9 8 8 8 8 8 7 9 9 9 9 10 10 10 11 12 13 14 16 16 15 16 16 15 14 15 16 16 17 17 17 17 18 19 20 20 20 20 20 21 21
9 8 8 8 8 7 7 7 7 7 7 7 8 8 9 9 9 10 10 11 13 13 13 13 14 15 14 14 14 13 13 12 13 14 15 16 18 19 20 20 20 20 20
8 8 8 7 7 7 6 6 6 6 5 6 6 7 7 7 7 7 8 8 9 10 11 12 13 13 13 13 13 11 9 9 10 11 12 14 15 17 19 20 20 20 21
8 7 7 6 6 5 5 4 4 4 3 4 4 5 5 6 6 6 6 7 8 9 10 10 10 10 9 9 8 8 8 8 9 9 10 11 12 15 17 19 20 19 19
8 7 6 5 5 4 3 3 2 2 2 2 2 3 3 4 4 5 6 6 7 8 9 9 8 8 9 9 7 7 7 7 8 8 9 10 11 12 12 15 18 19 19
8 7 6 6 5 4 3 2 1 1 1 1 1 1 2 2 3 4 4 5 5 6 6 7 7 7 7 7 7 6 5 6 6 6 7 7 8 9 10 12 15 17 18
8 7 6 6 4 3 3 2 2 1 1 1 1 1 1 1 1 2 2 3 3 4 5 6 5 5 5 5 5 4 4 5 5 5 5 5 6 6 7 9 12 15 17
9 8 7 6 5 4 3 3 2 1 0 0 0 -0 -0 -0 -0 -0 0 1 2 2 3 3 4 4 4 4 4 3 3 5 5 5 5 4 4 5 6 7 10 13 15
9 8 8 7 6 5 4 3 2 1 0 -1 -1 -1 -1 -1 -2 -1 -1 -0 0 1 2 2 2 2 2 2 2 2 3 5 6 5 4 4 5 5 6 6 8 11 14
9 8 8 7 6 5 5 4 3 1 -0 -1 -2 -2 -2 -2 -2 -2 -2 -1 -1 -0 -0 0 1 1 1 1 1 2 2 3 3 4 4 4 5 6 7 7 8 10 12

GFSGL_925_temp_102.txt.gz
Temp
23 23 23 23 24 24 24 24 24 24 24 24 25 24 24 24 23 23 23 23 23 23 23 23 23 24 24 24 24 24 24 24 23 25 25 25 26 25 26 26 26 26 26
22 22 23 23 23 23 24 23 23 24 24 25 25 24 24 24 24 23 23 23 23 23 23 23 24 23 24 23 24 24 24 24 23 22 24 24 25 25 25 25 25 26 26
19 21 21 21 22 23 23 23 24 24 24 24 25 24 24 24 24 24 24 23 24 24 24 24 24 24 24 23 23 23 23 23 23 22 22 23 24 24 24 25 25 26 26
19 20 19 20 20 21 21 22 22 23 24 24 24 24 24 24 24 24 24 24 24 24 24 24 24 24 24 24 24 23 23 23 23 23 22 23 23 24 24 24 24 25 25
19 18 18 19 19 20 20 21 21 21 21 23 24 24 23 23 23 23 23 24 24 23 24 24 24 24 23 23 23 24 24 24 24 23 23 23 23 24 23 23 23 24 25
18 18 19 18 18 19 19 20 20 21 21 21 21 22 23 23 23 22 23 23 23 23 23 24 24 24 24 24 24 24 24 24 23 23 22 22 23 23 24 24 23 22 22
17 17 17 17 17 17 17 17 18 19 21 21 21 20 20 20 20 22 23 23 23 23 23 24 24 24 24 24 24 24 24 24 24 23 23 23 23 24 24 23 23 22 21
15 15 15 15 16 17 16 16 16 17 18 20 19 19 18 18 19 20 20 21 22 21 21 21 22 23 23 22 23 23 24 24 24 23 23 24 23 23 23 22 22 21 22
14 14 14 15 16 16 16 17 17 16 17 18 18 18 18 18 18 19 20 20 20 19 19 19 20 20 20 20 21 21 22 23 23 22 22 22 23 23 23 22 22 20 22
14 14 15 15 15 15 16 17 16 17 17 17 16 16 16 16 17 17 18 18 18 18 18 18 18 18 18 18 19 19 19 20 20 21 22 22 22 22 22 22 22 20 21
13 13 14 14 14 15 15 15 15 16 16 16 16 16 16 15 16 16 17 17 16 17 17 17 17 17 18 18 18 18 18 18 20 20 20 21 21 21 22 22 22 21 21
12 12 13 13 13 13 14 14 15 15 15 15 15 15 14 14 15 15 15 15 16 16 16 17 17 17 17 18 18 18 18 19 19 19 19 19 19 19 20 20 20 20 21
11 11 11 11 12 12 12 12 12 13 13 12 12 12 12 12 13 13 14 14 15 15 15 16 17 17 17 18 18 17 17 17 17 17 17 17 18 18 19 19 20 20 21
9 9 10 10 10 10 10 11 11 10 9 9 9 9 9 10 10 11 11 13 14 14 15 15 16 16 17 17 17 17 16 16 16 16 16 16 17 17 18 18 19 19 19
9 9 9 9 9 9 8 8 8 8 8 8 7 8 7 7 6 7 8 9 10 11 13 14 14 14 15 15 15 14 14 14 15 15 14 14 14 14 14 15 16 17 18
9 8 8 8 8 8 8 8 7 7 7 7 7 7 6 6 7 7 7 9 9 10 11 10 10 10 10 11 12 13 13 14 14 13 12 12 11 12 12 12 13 15 16
8 8 8 8 8 7 7 7 7 7 7 6 6 5 5 6 7 7 6 7 7 8 7 7 8 9 10 11 11 11 10 11 12 12 10 10 10 11 11 11 11 12 14
8 8 8 7 7 7 7 6 6 6 5 5 5 4 4 5 5 4 4 6 5 5 5 6 6 7 8 9 9 9 9 9 9 9 9 9 9 9 10 10 11 11 12
8 8 7 7 7 7 7 6 6 5 5 4 5 5 4 4 4 4 3 2 3 4 4 4 4 5 5 6 6 7 8 8 7 8 7 7 8 7 8 9 10 10 10
8 8 8 7 7 6 6 5 5 4 4 3 2 2 1 1 1 1 1 1 1 1 2 2 3 3 3 4 4 5 6 7 7 6 6 6 6 6 7 7 8 8 9
8 8 8 7 7 6 6 5 5 5 4 4 3 2 1 1 1 1 0 0 0 -0 -1 -0 1 1 2 3 3 4 5 5 5 5 5 5 5 5 5 5 6 6 7
9 8 8 7 7 6 6 6 5 5 5 4 4 3 2 0 -0 -0 -0 -0 -1 -1 -1 -1 -1 -0 0 1 1 2 3 3 4 4 4 4 4 3 4 4 5 5 6
9 9 8 8 7 7 7 6 6 6 5 5 4 3 2 0 -0 -1 -1 -1 -1 -1 -2 -1 -1 -1 -1 -0 -0 -0 0 1 1 2 2 3 3 3 3 3 3 4 4
9 9 8 8 8 7 7 7 6 6 5 5 4 4 3 1 -0 -1 -1 -1 -1 -1 -2 -2 -2 -2 -2 -1 -1 -1 -1 -0 0 1 1 1 2 2 2 2 3 3 3
9 9 9 8 8 8 7 7 7 6 6 5 5 4 3 2 1 -0 -0 -0 -1 -1 -2 -2 -2 -2 -2 -2 -1 -1 -1 -1 -1 -1 -1 -1 -1 0 0 1 1 2 2
9 9 9 8 8 8 7 7 7 6 6 5 5 4 4 3 2 1 1 0 0 -1 -2 -2 -2 -2 -2 -2 -2 -2 -2 -1 -1 -1 -1 -1 -1 -1 -1 -0 0 1 2

GFSGL_925_temp_105.txt.gz
Temp
23 22 23 23 22 23 23 24 23 23 23 23 24 23 24 24 23 23 23 23 23 22 23 22 23 23 24 24 23 24 24 24 26 27 24 24 24 24 24 25 25 25 26
23 23 22 22 23 22 23 23 23 24 23 24 24 24 24 23 23 24 22 22 23 23 23 22 23 23 22 23 23 23 24 23 24 25 25 25 24 23 24 24 25 25 25
20 21 21 23 22 22 22 23 23 24 23 24 24 24 24 24 24 24 23 23 24 24 23 24 23 23 23 24 23 23 24 23 23 23 24 24 24 24 24 25 24 24 25
19 20 20 20 20 21 21 22 22 23 23 24 24 24 24 23 23 23 23 23 23 23 24 24 24 23 23 23 23 23 23 23 23 23 24 25 25 24 24 25 25 26 25
19 18 20 19 19 19 20 21 22 22 22 23 23 23 23 23 22 22 22 22 22 22 23 23 24 23 24 23 23 23 23 23 23 25 25 26 26 26 25 25 25 25 26
18 18 18 18 18 19 19 20 20 20 21 20 21 21 21 20 22 23 23 22 22 22 22 23 23 24 24 24 24 23 23 24 23 23 24 25 24 24 25 25 24 25 25
18 18 17 17 18 18 18 19 19 19 20 19 19 19 19 19 19 21 23 22 21 21 21 21 23 23 21 21 23 24 23 23 23 23 22 23 23 24 23 23 24 23 24
16 16 16 16 16 17 17 18 18 18 18 18 18 18 18 18 19 20 21 20 20 20 20 20 20 20 19 19 20 21 22 22 22 22 22 22 22 22 22 22 21 21 22
14 15 15 15 15 15 16 17 17 17 18 17 17 16 17 17 18 19 18 18 18 17 17 18 18 18 17 19 19 19 19 21 21 21 21 21 22 22 22 21 22 23 25
14 14 15 15 14 14 14 15 16 16 15 16 15 14 15 16 17 17 18 17 17 17 17 16 18 18 18 18 19 18 17 18 18 19 19 20 21 21 21 21 21 22 23
13 14 15 15 15 15 15 15 15 14 15 15 13 14 13 13 15 16 17 16 15 17 17 17 17 18 18 18 18 17 16 18 19 18 20 21 21 22 22 22 21 20 22
12 12 13 13 12 14 15 14 14 13 13 13 13 13 12 10 13 14 14 15 15 14 14 15 15 17 18 18 18 18 18 18 19 20 20 21 21 21 21 21 20 20 20
10 10 10 11 11 11 12 12 12 12 12 12 13 12 11 10 10 13 13 14 14 14 14 14 15 16 16 16 16 17 17 18 18 18 16 16 17 16 17 18 18 19 20
9 9 9 10 9 10 10 10 11 11 11 11 11 10 10 9 8 8 9 10 12 12 14 14 14 14 15 15 16 17 17 17 16 16 16 16 16 17 17 17 17 18 19
9 9 9 9 9 8 8 9 8 7 8 9 8 9 9 7 5 7 8 9 8 10 12 12 13 13 14 14 14 15 16 16 16 15 15 15 15 16 16 16 16 17 18
10 10 10 10 9 9 9 7 7 6 7 6 7 7 6 6 7 8 9 8 9 10 10 11 11 12 12 12 12 12 13 14 13 13 14 14 14 14 15 15 15 16 16
9 9 8 9 9 9 9 9 8 6 6 7 7 7 7 7 7 8 9 8 7 8 9 9 9 10 10 10 11 12 11 10 10 12 12 12 12 12 12 13 14 15 15
8 8 9 9 9 8 9 8 9 9 9 7 5 6 6 7 7 7 6 7 8 8 8 7 7 7 7 8 8 8 8 8 8 8 8 9 9 10 10 10 11 12 13
8 9 8 8 8 8 8 8 8 8 8 7 7 6 4 4 4 4 4 6 6 6 6 6 6 6 6 6 6 6 6 7 7 8 9 8 7 7 7 7 7 7 8
8 8 8 8 7 8 8 8 8 8 8 7 7 6 5 6 6 5 5 5 5 4 4 4 4 4 4 4 5 5 5 4 4 4 5 6 6 6 5 6 6 6 6
8 7 7 8 8 8 8 8 8 8 8 7 6 4 4 5 5 5 4 4 3 3 3 3 2 2 3 2 2 3 3 4 4 4 5 6 6 5 5 4 4 4 5
9 8 8 8 8 7 7 7 7 7 7 7 7 5 4 5 5 4 4 3 2 1 1 0 -0 -0 0 0 0 1 1 0 1 1 2 2 2 3 3 4 4 4 4
9 9 8 8 8 7 6 7 8 8 7 7 6 6 6 5 5 4 3 3 2 1 -0 -1 -1 -1 -1 -1 -0 -0 -0 -0 -0 -0 -0 0 1 1 1 2 3 3 3
9 9 9 8 8 8 8 8 8 7 7 7 7 6 6 5 5 4 4 3 3 2 2 0 -1 -1 -2 -2 -1 -1 -1 -1 -1 -1 -2 -1 -1 -1 -0 0 1 1 2
9 9 9 9 8 8 8 8 8 8 7 7 7 7 6 5 5 5 4 3 3 2 1 -0 -0 -1 -2 -2 -2 -2 -2 -2 -2 -2 -2 -2 -2 -2 -1 -1 -1 0 1
8 8 9 9 9 8 8 8 8 8 8 7 7 6 6 6 5 4 4 3 3 2 0 -0 -1 -1 -2 -2 -2 -2 -2 -2 -2 -2 -2 -1 -1 -1 -1 -1 -1 -0 0

GFSGL_925_temp_108.txt.gz
Temp
25 25 25 25 25 24 23 24 24 23 24 24 24 24 24 24 24 23 24 25 24 25 25 25 25 25 26 27 27 27 28 28 28 29 28 28 26 26 26 25 27 27 28
24 24 25 25 24 24 24 24 24 24 24 24 24 24 24 24 24 23 24 26 24 25 25 25 25 26 25 25 26 26 27 26 26 27 27 27 27 26 26 25 27 27 28
24 24 25 24 24 24 24 24 24 23 24 24 24 24 24 25 24 23 24 24 24 25 25 25 25 25 24 25 25 26 27 27 27 27 27 27 28 27 27 27 27 27 29
22 22 23 22 25 24 23 23 23 23 24 24 24 24 24 25 24 24 24 24 24 25 25 24 24 25 24 24 25 25 25 25 26 25 27 28 29 29 28 28 29 28 28
19 21 21 22 22 22 22 22 22 23 23 24 24 24 24 24 25 24 24 24 24 24 24 24 25 24 24 24 24 24 24 25 26 27 27 28 29 27 27 28 28 28 28
18 18 18 19 19 20 21 21 21 21 22 23 23 24 24 23 24 23 23 23 24 24 25 25 25 24 24 23 23 23 23 23 24 25 26 27 26 26 27 27 26 27 27
18 18 18 18 18 18 19 19 20 21 21 21 22 21 19 18 21 22 23 23 24 24 23 23 23 21 21 21 22 22 23 23 23 23 23 24 24 24 24 24 25 25 26
18 18 17 17 17 17 18 18 18 19 20 21 19 18 17 17 19 20 22 22 20 20 19 19 19 19 19 20 20 23 23 23 23 22 22 22 22 22 21 23 22 23 24
15 16 16 16 16 16 17 17 17 18 19 18 17 16 15 17 18 19 21 20 19 19 18 17 18 17 19 20 19 20 21 22 23 21 21 21 21 21 21 21 24 23 25
13 14 14 15 16 16 16 17 17 16 16 15 15 13 14 15 17 18 19 21 20 21 20 18 18 18 18 19 18 19 20 21 19 20 21 22 22 22 23 22 22 21 23
14 13 14 15 15 15 16 17 16 14 13 14 13 13 15 14 16 16 16 15 18 20 20 20 18 17 17 18 18 18 18 19 19 21 23 24 24 24 24 22 21 22 22
13 13 13 14 16 14 14 15 14 14 14 14 14 15 13 13 15 15 15 15 16 16 17 17 16 17 17 17 17 18 19 19 22 22 23 22 21 21 21 20 20 20 20
14 13 13 14 14 14 14 15 15 15 16 16 16 16 15 14 13 13 12 14 16 14 14 15 16 16 16 17 17 17 18 20 21 21 21 21 20 20 19 21 20 20 21
13 13 13 14 14 14 15 15 16 16 16 16 15 15 12 11 9 9 11 12 12 12 14 14 15 15 16 16 16 17 18 19 18 19 19 19 19 19 20 20 19 20 20
13 13 13 13 13 12 10 12 11 8 12 14 14 13 14 12 8 9 10 10 11 12 13 14 14 15 16 16 16 16 17 16 17 17 17 17 18 18 18 18 18 19 20
14 14 15 14 14 13 11 8 7 8 9 10 9 11 7 7 8 9 9 9 10 11 13 14 14 14 14 14 14 14 15 14 13 13 15 15 16 16 16 16 17 17 18
14 13 14 14 14 13 13 12 9 6 7 8 8 8 9 8 8 8 8 9 10 13 13 12 11 10 10 11 12 13 13 12 11 12 12 12 12 13 13 14 15 15 15
12 12 13 14 14 13 14 14 13 13 12 9 7 7 8 8 8 8 10 12 12 12 12 12 12 11 11 10 10 10 9 9 10 10 10 11 12 11 11 11 11 11 11
12 13 13 13 13 13 13 13 13 13 13 12 10 8 7 7 8 8 9 10 11 11 10 10 10 9 9 9 9 9 9 9 8 8 8 8 8 8 9 9 9 8 8
11 12 12 12 11 13 13 13 13 13 13 12 12 11 10 11 11 10 9 9 9 9 9 9 8 8 8 7 7 7 7 7 8 8 8 7 7 6 6 6 7 7 7
12 11 12 13 13 13 13 13 13 13 13 12 11 7 8 10 10 10 9 9 8 8 7 7 6 6 6 5 5 5 5 5 5 5 5 5 5 5 5 5 6 6 5
12 12 11 13 13 12 12 12 12 12 12 12 11 7 7 9 10 9 9 8 7 6 5 4 4 4 4 4 4 4 3 3 3 2 2 2 2 2 2 3 4 5 5
12 12 12 12 12 11 11 12 12 12 12 12 11 11 10 10 10 9 8 8 7 6 6 5 4 4 3 2 1 1 1 1 0 0 -0 -0 -0 0 0 1 2 3 4
13 13 13 12 12 12 12 12 12 11 12 12 11 11 10 10 10 9 8 8 7 7 7 6 5 4 3 2 1 1 0 -0 -2 -2 -1 -2 -2 -1 -1 -0 0 0 1
13 13 13 12 12 11 12 12 12 12 11 11 11 11 11 10 10 9 9 8 8 7 7 6 5 4 4 2 1 0 -0 -2 -2 -2 -2 -2 -2 -1 -1 -1 -1 -1 -0
10 12 12 13 12 12 12 12 12 12 12 12 11 11 11 10 10 9 9 8 8 7 6 6 5 3 3 3 2 1 1 -0 -2 -1 -1 -2 -2 -2 -1 -1 -1 -1 -1

GFSGL_925_temp_111.txt.gz
Temp
27 27 27 26 26 26 25 25 25 25 24 24 25 25 25 25 25 24 24 25 25 26 26 26 26 26 27 28 29 29 29 29 30 30 29 29 28 28 27 27 27 28 29
27 27 26 27 26 26 26 25 25 24 24 24 25 24 25 25 25 25 25 26 26 25 26 26 26 27 26 26 27 28 28 27 27 27 28 28 29 29 28 27 28 29 29
26 26 26 26 26 26 26 26 25 25 25 25 25 25 25 25 25 24 24 25 25 25 26 26 26 26 25 25 25 26 28 28 27 28 27 28 29 29 29 29 29 29 30
24 24 25 25 26 26 26 26 26 25 25 25 25 25 25 25 26 25 25 25 25 26 26 26 26 26 26 25 26 26 26 25 27 27 28 29 30 30 29 29 29 30 29
22 22 22 23 24 25 25 25 25 25 25 25 25 25 25 25 25 25 25 26 26 26 26 26 26 26 25 25 24 25 24 25 27 27 28 29 29 27 28 28 29 29 28
20 20 20 22 22 22 22 23 23 25 24 25 25 26 26 22 23 25 25 25 26 25 26 26 26 24 24 24 23 23 23 22 23 24 26 27 26 26 26 26 26 26 26
20 19 19 19 19 19 19 21 22 23 23 22 22 20 19 20 21 23 23 23 24 24 23 22 23 21 21 21 22 23 24 23 23 22 22 24 23 23 22 22 23 24 24
19 19 18 18 18 18 19 18 20 21 21 20 19 18 18 18 19 20 22 21 20 20 20 20 20 19 20 20 21 23 24 24 24 22 22 22 22 22 21 22 22 22 24
18 18 18 18 18 17 17 17 18 19 18 18 18 16 15 18 19 20 22 22 21 20 18 19 19 18 19 20 20 21 21 22 23 22 22 22 22 22 22 21 24 22 22
15 16 17 16 16 17 18 18 18 17 16 17 16 15 15 17 18 20 21 23 22 22 20 19 19 18 18 19 18 19 20 20 20 20 21 23 24 23 22 21 21 22 22
13 14 16 16 17 17 17 17 15 15 14 15 15 15 15 15 17 18 19 19 19 21 23 21 18 18 18 18 18 18 18 20 20 21 25 25 23 23 23 22 21 21 22
13 14 15 16 17 17 16 16 14 14 14 15 15 16 15 14 15 16 17 17 17 17 17 18 17 17 18 18 18 18 19 20 21 23 24 23 23 22 22 21 21 21 21
13 13 14 15 15 16 16 16 15 16 17 18 19 18 17 15 13 13 14 16 16 16 15 16 16 17 17 18 18 18 19 21 21 20 21 21 21 21 20 21 21 21 21
14 14 15 15 16 17 18 18 18 19 18 18 18 18 16 15 13 12 12 13 13 14 13 15 16 17 18 17 18 19 19 18 18 19 19 19 19 19 20 20 20 20 20
15 15 16 15 16 12 13 14 13 13 13 17 16 16 15 15 10 12 12 11 11 12 14 16 15 16 16 16 15 16 16 16 16 15 16 17 18 18 18 18 17 18 19
16 17 18 17 16 14 12 9 9 10 12 12 12 12 11 11 11 11 11 12 13 13 15 16 15 15 15 15 15 14 14 13 12 13 14 14 15 15 15 15 16 16 17
17 16 17 18 17 16 14 13 11 8 10 10 10 10 10 11 11 11 11 12 13 14 16 15 15 14 13 13 13 13 12 12 12 12 11 11 12 13 13 13 14 14 14
15 15 17 17 17 17 16 16 15 14 13 10 9 8 9 10 10 10 11 13 14 15 14 14 14 13 13 12 12 12 12 11 11 11 11 11 11 11 11 11 11 11 11
14 15 16 17 17 16 16 16 17 16 16 14 11 9 9 10 10 11 12 14 14 14 13 13 12 12 11 11 10 10 10 10 10 10 10 10 10 10 10 9 9 8 8
13 14 15 16 15 15 16 16 16 16 16 15 15 14 13 11 13 13 12 12 13 12 12 12 11 10 9 9 8 8 8 9 9 8 8 8 8 7 7 8 8 8 7
14 12 12 13 14 16 16 16 16 16 15 15 14 10 11 12 14 13 13 12 12 11 10 10 9 8 8 8 7 8 8 8 7 7 6 6 5 5 5 5 6 6 6
14 13 12 14 15 15 15 15 15 15 16 15 14 10 10 10 13 13 12 11 11 10 9 8 8 8 7 6 6 6 6 6 5 5 4 3 3 3 3 4 4 4 5
15 14 14 14 15 14 14 15 15 15 15 15 15 14 12 13 13 12 12 11 10 10 9 9 8 8 7 6 5 4 4 3 3 2 1 0 0 1 1 2 2 3 3
14 14 14 14 14 14 14 14 14 14 15 15 14 14 13 13 13 12 11 11 11 10 10 9 9 8 7 6 6 6 5 3 1 0 -0 -0 -1 -1 -0 0 0 1 1
14 15 15 15 15 14 14 14 14 14 14 14 14 14 14 13 13 12 12 11 11 10 10 9 9 8 7 7 6 5 4 3 1 0 -1 -1 -0 -0 -0 0 0 -0 0
13 13 14 14 14 14 14 14 14 14 14 14 14 14 13 13 13 12 12 11 11 10 10 9 9 8 7 6 6 4 3 2 2 1 -0 -1 -0 -0 0 -0 -0 -0 0

GFSGL_925_temp_114.txt.gz
Temp
27 26 26 26 25 25 25 25 25 24 25 23 25 25 25 25 25 25 25 25 25 25 26 26 26 26 26 27 27 27 28 28 27 28 28 28 28 28 28 28 28 28 29
27 27 26 26 26 26 26 25 25 24 24 24 24 25 25 25 25 25 25 25 25 26 25 26 26 26 26 26 25 26 27 27 27 26 27 27 28 29 29 29 28 28 29
26 26 26 26 27 27 26 26 25 25 24 25 24 24 24 24 24 24 24 25 25 25 25 26 26 26 26 25 25 25 26 25 26 26 27 27 28 28 27 28 29 29 29
26 26 26 24 26 25 26 26 26 25 25 24 24 24 24 25 24 24 24 24 25 25 25 26 26 26 26 25 25 25 25 25 25 25 26 27 28 26 26 27 27 26 26
24 23 24 24 24 25 24 26 26 25 25 24 24 25 25 25 24 24 23 24 25 25 26 26 25 25 25 25 24 24 24 24 24 24 24 25 25 25 24 24 24 24 25
22 22 23 24 23 23 22 23 24 24 24 24 24 24 23 23 22 22 23 23 23 22 25 25 24 24 24 24 23 23 23 23 23 23 23 23 23 22 23 22 23 22 23
21 21 20 20 20 20 21 21 20 22 23 22 21 21 21 20 21 22 24 24 24 23 24 24 23 22 22 22 22 23 23 23 23 22 22 22 21 22 21 21 21 22 22
21 20 19 18 18 18 18 18 19 20 20 19 18 19 19 19 20 22 22 22 21 21 20 20 20 20 20 22 22 21 22 22 22 22 22 22 22 22 22 21 21 22 22
19 19 18 18 18 18 18 18 18 18 18 18 18 18 18 18 19 20 22 21 20 20 20 20 19 19 20 20 20 20 21 21 22 22 23 23 23 22 22 21 21 21 21
16 17 18 18 18 18 18 18 17 17 17 18 17 17 17 18 19 20 21 21 20 19 20 19 19 19 18 19 19 18 19 20 21 23 24 22 23 23 22 21 21 20 21
15 16 16 17 17 18 17 17 16 16 16 15 15 15 16 16 17 18 19 20 19 18 18 17 18 19 19 18 18 18 19 20 21 22 23 23 22 22 21 21 21 21 20
15 16 16 17 17 16 16 16 15 16 15 15 15 15 15 15 16 17 17 17 18 19 18 18 18 18 19 18 18 18 19 19 19 20 20 19 19 19 20 20 20 20 20
15 15 15 16 16 16 16 15 15 16 17 17 17 17 16 15 14 15 16 17 16 17 17 17 18 17 18 18 18 18 18 18 17 18 18 18 19 19 19 18 18 18 19
14 15 15 15 15 16 15 16 16 16 17 19 19 18 17 15 14 16 15 14 14 15 16 16 16 17 16 16 16 15 15 15 14 15 15 15 16 16 16 16 16 16 17
14 14 15 15 15 14 14 13 13 13 15 16 16 16 16 14 14 13 14 14 14 15 16 16 16 16 15 15 14 14 13 13 13 13 12 13 13 13 13 14 14 14 15
14 15 15 15 15 14 12 11 11 12 13 14 14 15 14 14 14 13 13 13 14 15 15 15 14 14 14 14 14 13 13 12 12 11 11 11 11 11 11 11 12 12 12
16 17 18 17 16 15 13 12 10 10 12 13 13 13 13 13 13 13 13 14 14 15 15 15 14 14 13 13 13 12 12 11 11 10 11 11 11 10 10 11 10 9 10
16 17 17 18 18 16 15 15 13 12 11 10 11 11 12 13 12 13 13 14 15 15 14 14 13 13 12 11 11 11 10 10 10 10 10 10 9 9 9 8 8 8 8
15 16 17 17 17 17 17 17 16 16 14 11 11 10 11 11 12 12 13 14 14 14 13 12 12 11 10 10 9 9 9 9 9 9 8 8 8 7 7 7 7 7 7
14 15 16 16 16 16 16 17 17 17 16 15 14 13 12 12 12 13 13 13 13 13 12 12 10 10 9 9 8 8 9 9 8 7 7 6 6 5 5 5 5 5 6
14 14 14 15 15 15 16 16 16 16 16 16 15 14 13 13 14 14 14 12 12 12 11 10 9 9 9 8 7 8 8 7 7 6 5 5 4 4 4 4 4 5 5
15 14 13 14 14 14 15 15 15 16 16 16 13 13 13 13 14 13 13 12 12 10 10 9 9 8 8 7 7 6 6 6 5 4 3 3 2 2 2 2 2 3 3
15 15 14 14 15 15 15 14 15 15 15 16 14 14 13 12 13 13 13 12 12 11 10 10 9 9 9 8 7 6 6 5 4 3 2 2 1 1 1 0 1 1 1
15 15 15 14 14 15 15 14 14 15 15 15 15 13 13 13 14 13 13 12 12 11 11 10 10 9 8 8 7 7 7 6 4 3 2 1 0 0 0 0 1 1 1
15 15 15 15 15 14 14 14 14 14 15 15 14 15 14 14 13 13 12 12 12 11 11 10 10 10 9 8 7 6 6 5 4 3 2 0 0 1 1 1 0 0 0
13 13 13 14 14 15 14 14 14 14 14 15 14 14 14 14 14 14 13 13 12 11 11 11 10 10 9 8 7 6 6 5 4 3 2 2 0 1 1 1 1 1 1

GFSGL_925_temp_117.txt.gz
Temp
25 25 25 25 24 24 24 24 24 25 24 26 25 25 25 25 25 24 24 25 25 25 25 25 25 26 26 26 25 26 26 26 25 26 27 27 27 27 27 28 28 28 27
25 25 25 25 25 25 25 25 24 24 25 25 25 24 25 24 24 24 24 25 24 25 25 25 25 26 26 25 25 26 25 25 25 25 26 26 27 26 27 27 26 26 26
26 26 25 25 25 25 25 25 25 24 24 24 24 24 24 24 24 24 24 24 24 25 25 25 25 26 26 25 25 25 25 25 25 24 25 25 25 25 25 26 25 26 26
26 25 25 25 26 25 25 25 25 25 24 24 24 24 24 24 24 24 24 24 24 24 24 25 25 25 25 25 24 24 24 24 24 24 23 24 23 23 23 22 23 24 25
26 24 24 25 24 24 25 24 25 25 25 24 24 24 24 24 23 23 24 24 24 24 24 23 24 25 25 24 24 24 24 24 23 23 23 22 22 22 22 22 21 22 23
23 20 21 22 23 22 22 22 24 24 24 24 23 23 22 21 21 22 23 23 24 24 24 22 22 23 24 23 22 22 22 22 23 22 21 21 21 22 21 21 21 20 21
21 22 22 23 22 21 21 22 22 21 22 21 21 20 20 20 21 22 24 23 22 23 21 20 22 21 22 22 22 21 21 22 22 21 21 21 21 21 21 21 21 21 21
21 20 20 19 19 19 19 19 20 22 19 19 19 19 19 19 20 22 22 22 22 20 20 20 20 21 21 21 20 21 21 21 21 21 21 22 21 21 21 20 20 21 21
19 19 19 19 19 19 18 18 16 18 18 17 19 20 19 19 20 22 21 21 20 19 19 20 20 20 20 20 21 21 22 22 22 22 22 22 21 21 21 21 20 20 20
18 19 18 18 18 18 17 17 16 17 17 17 17 17 18 19 20 20 19 19 19 18 18 18 19 19 19 20 20 20 20 20 20 22 22 20 20 20 20 20 19 19 19
17 17 18 18 18 18 17 17 17 16 16 16 16 15 16 17 18 19 19 19 18 17 18 18 18 18 19 18 18 18 18 19 19 19 19 19 19 18 18 19 18 18 18
16 17 17 17 17 17 17 16 16 17 16 16 16 15 16 16 16 17 17 18 18 18 18 18 18 17 17 17 17 18 18 18 18 17 17 16 16 16 16 17 17 17 18
16 16 16 16 15 16 16 15 15 15 16 16 15 15 14 15 15 16 16 16 17 17 17 16 17 17 17 16 16 17 17 16 16 15 14 14 14 14 15 16 15 15 16
15 15 15 15 15 15 15 15 15 15 15 16 16 15 15 15 16 15 15 15 16 17 16 16 16 16 16 15 15 15 14 13 13 12 12 12 13 13 13 12 12 12 13
14 14 14 14 15 14 14 14 13 14 15 16 16 15 16 15 15 16 15 15 15 16 15 15 15 15 14 13 13 12 12 12 11 11 11 11 11 11 10 10 10 10 9
14 14 15 14 13 13 13 11 11 12 13 15 15 16 15 15 15 15 14 15 15 14 15 14 14 13 13 12 12 11 11 11 11 10 10 10 10 9 9 9 8 8 8
15 15 14 14 14 14 13 13 12 11 12 13 14 15 14 14 13 13 14 14 15 15 14 13 13 12 11 11 11 10 10 10 10 9 9 8 8 8 7 7 7 6 6
16 16 16 15 15 15 14 14 13 12 13 12 13 14 13 13 13 13 14 14 14 14 13 12 12 11 10 10 10 9 9 9 9 8 8 7 6 6 5 5 5 5 5
16 17 16 16 16 16 15 14 14 13 13 13 13 13 13 13 13 13 14 14 13 13 12 12 11 10 10 9 9 9 9 8 8 7 6 6 5 5 4 4 4 4 4
14 15 15 16 17 16 15 15 14 13 13 13 13 13 12 13 13 13 13 13 13 12 11 11 10 9 9 8 8 8 8 7 6 6 5 5 4 3 3 3 3 3 2
14 15 15 15 16 16 16 16 15 14 14 13 13 13 13 13 12 12 13 13 12 11 10 10 9 9 8 8 7 7 7 6 6 5 5 4 3 2 2 1 1 1 1
14 14 14 15 15 15 15 15 15 16 15 14 13 13 14 14 13 13 12 12 12 11 10 9 9 9 8 8 7 7 6 5 5 5 4 4 3 2 1 1 1 1 1
14 14 14 14 14 14 15 15 15 15 15 15 15 14 14 14 14 13 13 12 11 11 10 10 9 9 8 8 7 7 7 6 6 5 5 4 3 2 1 1 1 1 1
14 15 14 14 14 14 14 14 15 14 15 15 14 14 14 14 14 13 13 12 12 11 11 10 10 9 9 8 8 7 7 6 6 5 5 4 3 2 1 1 1 1 1
13 14 15 14 14 14 14 14 14 14 14 14 14 14 14 14 14 13 13 12 12 11 11 11 10 10 9 8 8 8 7 7 6 6 5 4 3 2 2 1 1 1 1
14 14 14 14 14 14 14 14 14 14 14 14 14 14 14 14 14 14 13 13 12 12 11 11 11 10 9 9 9 9 8 7 6 6 5 4 3 3 3 2 2 2 2

GFSGL_925_temp_123.txt.gz
Temp
24 24 24 24 24 24 24 24 24 24 24 24 25 24 24 24 24 24 24 24 24 24 24 24 24 24 24 24 24 24 24 24 22 24 24 24 24 25 25 25 25 25 25
24 23 24 24 23 23 24 24 24 24 24 24 24 24 24 24 24 24 24 24 24 24 24 24 24 24 24 24 24 24 24 23 23 23 23 24 24 24 24 24 24 23 23
24 24 23 23 23 23 23 24 24 24 24 24 24 24 24 24 24 24 24 24 24 24 24 24 24 24 24 24 24 24 23 23 23 22 22 23 22 22 23 23 23 22 23
24 24 24 23 24 23 23 23 24 24 23 24 24 24 23 24 24 23 23 23 23 23 23 24 24 24 24 24 24 23 23 23 23 22 22 21 21 21 22 21 22 22 21
24 24 24 24 23 23 23 23 24 24 23 23 23 23 23 23 23 23 23 23 23 23 23 23 24 24 24 23 24 23 23 23 22 21 21 21 20 20 20 20 21 21 20
24 23 23 23 23 22 22 22 23 23 24 24 23 23 23 23 23 24 24 23 23 22 22 23 22 22 23 23 22 22 22 22 21 21 20 20 19 19 19 20 20 20 19
21 21 22 22 21 21 21 20 21 21 22 23 23 23 23 22 22 22 23 21 20 21 21 22 22 22 21 20 21 21 21 21 21 20 20 19 19 19 20 20 20 19 17
21 21 21 21 21 22 21 21 21 20 19 20 20 20 20 21 21 21 19 19 20 20 20 20 20 20 20 20 20 21 20 20 20 19 19 19 19 19 20 20 20 20 17
20 21 20 20 20 20 20 19 19 18 18 18 18 18 18 19 20 20 20 19 18 18 19 19 19 19 20 20 20 20 19 17 17 18 18 18 19 19 19 20 19 19 16
19 20 18 19 18 18 18 17 17 17 16 14 15 16 17 18 19 19 20 19 19 18 17 18 18 19 19 20 20 20 18 17 17 17 17 17 17 17 17 17 16 16 14
18 18 18 18 18 18 17 17 16 15 14 14 14 15 16 17 17 18 19 18 18 16 16 17 17 18 19 19 19 19 17 17 17 17 16 15 15 15 14 14 14 13 12
18 18 17 17 17 17 17 16 15 14 14 14 14 14 15 15 16 16 17 16 16 16 16 16 16 17 17 18 18 17 17 17 16 15 14 13 13 12 12 11 11 11 10
17 16 17 17 17 17 16 16 14 14 14 14 14 14 14 14 15 15 15 15 15 15 16 16 15 16 16 16 15 16 16 16 14 13 11 10 10 10 12 11 10 10 10
15 15 15 15 15 14 14 14 14 14 13 13 14 14 14 14 15 15 15 15 15 15 14 14 14 15 15 14 14 14 14 13 12 11 10 9 9 10 9 10 10 10 9
14 13 13 13 14 13 13 12 13 13 14 14 14 15 15 14 15 15 15 14 14 14 14 13 14 13 13 12 12 11 11 11 10 10 9 9 8 8 7 7 7 6 5
14 13 13 13 13 13 12 11 11 12 13 14 14 14 15 15 15 14 15 14 14 14 14 13 12 12 11 11 10 10 9 9 9 9 8 8 7 7 6 6 5 5 4
13 13 13 13 12 12 12 12 11 11 11 12 13 13 14 15 15 14 13 13 13 13 13 12 11 11 10 10 9 9 8 8 8 7 7 6 6 6 5 4 4 4 3
13 13 13 13 13 13 12 12 11 12 11 12 13 13 13 13 13 13 13 13 13 13 13 11 11 10 9 9 8 8 7 7 7 7 6 6 6 5 5 4 3 2 2
15 15 14 14 14 13 13 12 12 11 11 11 11 11 12 12 12 13 13 14 13 12 11 11 10 10 9 8 8 8 7 7 6 6 6 6 5 5 4 3 3 2 2
15 15 16 16 14 14 13 13 13 13 12 12 11 11 11 11 12 12 12 13 13 12 11 11 10 9 9 8 8 7 7 7 7 6 6 6 5 4 4 3 2 2 2
14 14 15 15 14 14 14 14 13 13 13 13 13 12 12 13 12 13 12 12 12 11 11 11 10 9 8 8 7 7 7 6 6 6 6 6 5 4 4 3 3 2 2
13 14 14 14 14 14 14 14 14 13 13 13 13 13 12 12 12 12 12 12 12 12 11 11 9 9 9 9 8 8 7 7 7 6 6 6 5 4 4 3 3 3 3
13 13 13 14 13 13 13 14 14 14 13 13 13 13 13 13 13 12 12 12 12 11 11 10 10 9 9 8 9 8 8 8 7 7 6 6 5 5 4 3 3 3 3
13 13 13 13 14 14 13 13 13 14 14 14 14 13 13 13 13 13 13 12 12 11 11 11 10 10 9 9 9 8 8 8 8 7 7 6 5 5 4 4 4 3 3
12 13 13 13 13 13 13 14 14 13 13 14 14 14 13 13 13 13 12 12 12 12 11 11 10 10 10 9 9 9 9 8 8 7 7 6 6 5 5 4 4 3 2
13 13 13 13 13 14 14 14 14 14 14 14 14 14 14 14 13 13 13 12 12 12 12 11 11 11 11 10 10 10 9 9 8 8 7 6 6 5 5 4 3 3 3